Home   Weather   Antananarivo   Past weeks

Flag for Madagascar Past Weather in Antananarivo, Madagascar — Yesterday and Last 2 Weeks

Now
57 °F

Passing clouds.


Feels Like: 57 °F
Forecast: 61 / 84 °F
Wind: No wind

Location: Antananarivo / Ivato

Current Time: Dec 9, 2016 at 4:57:34 am

Latest Report: Dec 9, 2016 at 4:30 am


Visibility: N/A

Pressure: 30.18 "Hg (25.89 "Hg at 1287m altitude)

Humidity: 94%

Dew Point: 55 °F

Location of AntananarivoLocation

Past Weather in Antananarivo — Graph

°F

Antananarivo Temperature Yesterday

Maximum temperature yesterday: 81 °F (at 12:30 pm)
Minimum temperature yesterday: 61 °F (at 5:00 am)
Average temperature yesterday: 70 °F

High & Low Weather Summary for the Past Weeks

 TemperatureHumidityPressure
High86 °F (Nov 25, 3:00 pm)100% (Nov 27, 8:00 pm)30.24 "Hg (Nov 27, 8:00 pm)
Low57 °F (Nov 25, 5:00 am)33% (Nov 27, 1:00 pm)29.98 "Hg (Dec 2, 3:00 pm)
Average69 °F76%30.12 "Hg
* Reported Nov 24 3:00 am — Dec 9 3:30 am, Antananarivo, Weather by CustomWeather, © 2016

Note: Actual official high and low records may vary slightly from our data, if they occured in-between our weather recording intervals... More about our weather records

Advertising

Antananarivo Weather History for the Previous 24 Hours

Scroll right to see more
 ConditionsComfort  
Time TempWeatherWind HumidityBarometerVisibility
3:30 am
Fri, Dec 9
57 °FPassing clouds.8 mph94%30.18 "HgN/A
3:00 am59 °FPassing clouds.3 mph88%30.18 "HgN/A
2:30 am59 °FPassing clouds.No wind88%30.18 "HgN/A
2:00 am59 °FPassing clouds.No wind88%30.18 "HgN/A
1:30 am59 °FPassing clouds.No wind88%30.18 "HgN/A
1:00 am59 °FPassing clouds.No wind94%30.21 "HgN/A
12:30 am61 °FPassing clouds.No wind88%30.21 "HgN/A
12:00 am61 °FPassing clouds.No wind88%30.21 "HgN/A
11:30 pm
Thu, Dec 8
63 °FPassing clouds.8 mph83%30.24 "HgN/A
11:00 pm63 °FPassing clouds.6 mph83%30.24 "HgN/A
10:30 pm63 °FPassing clouds.No wind83%30.24 "HgN/A
10:00 pm63 °FPassing clouds.12 mph88%30.24 "HgN/A
9:30 pm64 °FPassing clouds.7 mph83%30.24 "HgN/A
9:00 pm64 °FPassing clouds.10 mph83%30.24 "HgN/A
8:30 pm66 °FPassing clouds.13 mph78%30.21 "HgN/A
8:00 pm66 °FPassing clouds.13 mph83%30.21 "HgN/A
7:30 pm68 °FPassing clouds.10 mph73%30.21 "HgN/A
7:00 pm70 °FPassing clouds.12 mph64%30.21 "HgN/A
6:30 pm72 °FPassing clouds.10 mph57%30.18 "HgN/A
6:00 pm73 °FPassing clouds.13 mph53%30.18 "HgN/A
5:30 pm75 °FScattered clouds.10 mph47%30.15 "HgN/A
5:00 pm77 °FScattered clouds.8 mph44%30.15 "HgN/A
4:30 pm77 °FScattered clouds.8 mph47%30.15 "HgN/A
4:00 pm77 °FScattered clouds.9 mph44%30.15 "HgN/A
3:30 pm79 °FScattered clouds.8 mph45%30.15 "HgN/A
3:00 pm79 °FPartly sunny.9 mph42%30.15 "HgN/A
2:30 pm81 °FPartly sunny.8 mph42%30.15 "HgN/A
2:00 pm81 °FPartly sunny.7 mph42%30.18 "HgN/A
1:30 pm79 °FPartly sunny.7 mph42%30.18 "HgN/A
1:00 pm79 °FPartly sunny.10 mph42%30.18 "HgN/A
12:30 pm81 °FPartly sunny.6 mph42%30.21 "HgN/A
12:00 pm79 °FScattered clouds.10 mph45%30.21 "HgN/A
11:30 am77 °FScattered clouds.9 mph44%30.21 "HgN/A
11:00 am75 °FScattered clouds.5 mph50%30.24 "HgN/A
10:30 am77 °FScattered clouds.12 mph54%30.24 "HgN/A
10:00 am75 °FScattered clouds.10 mph54%30.24 "HgN/A
9:30 am73 °FPartly sunny.13 mph50%30.24 "HgN/A
9:00 am73 °FScattered clouds.10 mph61%30.24 "HgN/A
8:30 am70 °FScattered clouds.14 mph60%30.24 "HgN/A
8:00 am68 °FScattered clouds.10 mph69%30.24 "HgN/A
7:30 am66 °FScattered clouds.1 mph78%30.21 "HgN/A
7:00 am68 °FScattered clouds.1 mph73%30.21 "HgN/A
6:30 am66 °FPassing clouds.7 mph78%30.21 "HgN/A
5:30 am61 °FScattered clouds.No wind94%30.18 "HgN/A
5:00 am61 °FPassing clouds.No wind94%30.18 "HgN/A
4:30 am63 °FPassing clouds.No wind88%30.15 "HgN/A
4:00 am63 °FPassing clouds.No wind94%30.18 "HgN/A
Weather by CustomWeather, © 2016

See weather overviewHow to use our weather pages